Cecil Field, FL

4:29 AM EST on November 22, 2017 (GMT -0500)
Cecil

Weather History for KVQQ - February, 2013

Change the Weather History Date:

Thursday, February 28, 2013

  Actual Average (KNIP) Record (KNIP)
Temperature  
Mean Temperature 54 °F -  
Max Temperature 69 °F 68 °F 86 °F (1997)
Min Temperature 39 °F 51 °F 33 °F (2002)
Degree Days  
Heating Degree Days 11    
Growing Degree Days 4 (Base 50)    
Moisture  
Dew Point 40 °F    
Average Humidity 66    
Maximum Humidity 100    
Minimum Humidity 35    
Precipitation  
Precipitation 0.00 in - - ()
Sea Level Pressure  
Sea Level Pressure 29.94 in    
Wind  
Wind Speed 3 mph (West)    
Max Wind Speed 17 mph    
Max Gust Speed -    
Visibility 10 miles    
Events      
Averages and records for this station are not official NWS values.
T = Trace of Precipitation, MM = Missing Value Source: NWS Daily Summary

Daily Weather History Graph

Daily Weather History Graph

Search for Another Location

Airport or City:

Trip Planner

Search our weather history database for the weather conditions in past years. The results will help you decide how hot, cold, wet, or windy it might be!

Date:

Astronomy

Feb. 28, 2013 Rise Set
Actual Time 6:54 AM EST 6:25 PM EST
Civil Twilight 6:30 AM EST 6:50 PM EST
Nautical Twilight 6:02 AM EST 7:17 PM EST
Astronomical Twilight 5:34 AM EST 7:45 PM EST
Moon 9:32 PM EST (2/28) 8:19 AM EST (2/28)
Length of Visible Light 12h 19m
Length of Day
11h 31m
Waning Gibbous, 91% of the Moon is Illuminated
Feb 28
Waning Gibbous
Mar 4
Last Quarter
Mar 11
New
Mar 19
First Quarter
Mar 27
Full

Hourly Weather History & Observations

Time (EST) Temp. Windchill Dew Point Humidity Pressure Visibility Wind Dir Wind Speed Gust Speed Precip Events Conditions
12:15 AM 50.0 °F - 44.6 °F 82% 29.95 in 10.0 mi Calm Calm - N/A   Clear
12:55 AM 48.2 °F - 44.6 °F 87% 29.95 in 10.0 mi Calm Calm - N/A   Clear
1:15 AM 48.2 °F - 44.6 °F 87% 29.95 in 10.0 mi Calm Calm - N/A   Clear
1:35 AM 50.0 °F - 44.6 °F 82% 29.95 in 10.0 mi SW 5.8 mph - N/A   Clear
1:55 AM 48.2 °F - 44.6 °F 87% 29.95 in 10.0 mi Calm Calm - N/A   Clear
2:15 AM 48.2 °F - 44.6 °F 87% 29.95 in 10.0 mi SSW 5.8 mph - N/A   Clear
2:35 AM 48.2 °F - 44.6 °F 87% 29.95 in 10.0 mi Calm Calm - N/A   Clear
2:55 AM 46.4 °F - 42.8 °F 87% 29.95 in 10.0 mi Calm Calm - N/A   Clear
3:15 AM 46.4 °F 45.2 °F 42.8 °F 87% 29.95 in 10.0 mi SW 3.5 mph - N/A   Clear
3:35 AM 44.6 °F - 42.8 °F 93% 29.94 in 10.0 mi Calm Calm - N/A   Clear
3:55 AM 44.6 °F - 41.0 °F 87% 29.95 in 10.0 mi Calm Calm - N/A   Clear
4:15 AM 44.6 °F - 41.0 °F 87% 29.95 in 10.0 mi Calm Calm - N/A   Clear
4:35 AM 44.6 °F - 41.0 °F 87% 29.95 in 10.0 mi Calm Calm - N/A   Clear
4:55 AM 46.4 °F - 41.0 °F 81% 29.95 in 10.0 mi Calm Calm - N/A   Clear
5:15 AM 44.6 °F - 41.0 °F 87% 29.95 in 10.0 mi Calm Calm - N/A   Clear
5:55 AM 41.0 °F - 39.2 °F 93% 29.95 in 10.0 mi Calm Calm - N/A   Clear
6:15 AM 39.2 °F - 39.2 °F 100% 29.95 in 10.0 mi Calm Calm - N/A   Clear
6:35 AM 39.2 °F - 39.2 °F 100% 29.95 in 8.0 mi Calm Calm - N/A   Clear
6:50 AM 39.2 °F - 39.2 °F 100% 29.95 in 10.0 mi Calm Calm - N/A   Clear
7:50 AM 41.0 °F - 41.0 °F 100% 29.97 in 10.0 mi Calm Calm - N/A   Clear
8:50 AM 53.6 °F - 44.6 °F 72% 29.99 in 10.0 mi WNW 8.1 mph - N/A   Clear
9:50 AM 57.2 °F - 39.2 °F 51% 29.99 in 10.0 mi NW 5.8 mph - N/A   Clear
10:50 AM 60.8 °F - 39.2 °F 45% 29.98 in 10.0 mi West 6.9 mph - N/A   Clear
11:50 AM 64.4 °F - 41.0 °F 42% 29.96 in 10.0 mi WSW 17.3 mph - N/A   Clear
12:50 PM 66.2 °F - 44.6 °F 46% 29.92 in 10.0 mi West 11.5 mph - N/A   Clear
1:50 PM 68.0 °F - 41.0 °F 37% 29.89 in 10.0 mi West 16.1 mph - N/A   Clear
2:50 PM 68.0 °F - 41.0 °F 37% 29.88 in 10.0 mi SW 17.3 mph - N/A   Clear
3:50 PM 69.8 °F - 41.0 °F 35% 29.88 in 10.0 mi West 17.3 mph - N/A   Clear
4:50 PM 68.0 °F - 39.2 °F 35% 29.87 in 10.0 mi West 10.4 mph - N/A   Clear
5:50 PM 66.2 °F - 39.2 °F 37% 29.88 in 10.0 mi West 12.7 mph - N/A   Clear
6:50 PM 60.8 °F - 39.2 °F 45% 29.90 in 10.0 mi West 6.9 mph - N/A   Clear
7:50 PM 59.0 °F - 37.4 °F 45% 29.92 in 10.0 mi WNW 6.9 mph - N/A   Clear
8:15 PM 57.2 °F - 37.4 °F 48% 29.93 in 10.0 mi West 5.8 mph - N/A   Clear
8:35 PM 57.2 °F - 35.6 °F 44% 29.93 in 10.0 mi WNW 9.2 mph - N/A   Clear
8:55 PM 57.2 °F - 32.0 °F 38% 29.93 in 10.0 mi WNW 10.4 mph - N/A   Clear
9:15 PM 57.2 °F - 32.0 °F 38% 29.93 in 10.0 mi WNW 9.2 mph - N/A   Clear
9:35 PM 55.4 °F - 32.0 °F 41% 29.94 in 10.0 mi West 4.6 mph - N/A   Clear
10:15 PM 55.4 °F - 32.0 °F 41% 29.94 in 10.0 mi West 4.6 mph - N/A   Clear
10:35 PM 53.6 °F - 32.0 °F 44% 29.95 in 10.0 mi West 6.9 mph - N/A   Clear
11:35 PM 53.6 °F - 33.8 °F 47% 29.95 in 10.0 mi West 5.8 mph - N/A   Clear
11:55 PM 53.6 °F - 33.8 °F 47% 29.95 in 10.0 mi WSW 3.5 mph - N/A   Clear